Wind_Speed
12 11 10 9 9 8 9 10 11 12 13 14 14 14 14 12 14 15 14 15 15 16 16 16 16 16 16 16 17 17 17 19 20
11 12 10 10 8 7 8 9 9 11 12 12 13 14 13 12 13 13 13 13 13 14 15 16 16 16 16 16 16 16 16 17 20
11 10 9 9 8 7 7 7 8 9 11 11 11 12 12 12 12 11 11 11 11 13 13 14 14 15 15 15 15 15 15 15 18
10 10 10 8 6 6 6 7 8 8 9 10 11 10 12 11 10 10 10 10 10 11 12 13 13 14 14 14 14 14 14 14 16
9 9 9 8 7 5 5 5 6 7 6 8 10 9 9 9 9 9 9 8 9 9 9 10 10 12 12 13 14 13 13 13 13
10 9 8 8 8 6 5 4 4 5 5 6 8 8 8 7 7 8 8 7 7 7 7 7 8 9 10 11 11 12 12 11 11
9 9 8 7 6 6 4 4 4 4 3 4 5 6 6 6 6 6 7 6 5 5 5 6 6 6 8 9 9 9 10 10 10
9 8 8 7 6 5 4 4 4 4 3 3 3 3 4 4 4 5 6 6 5 4 4 4 5 5 6 6 7 6 6 8 9
8 8 7 7 6 5 4 3 3 3 3 2 1 1 1 2 2 2 4 4 4 3 3 3 3 4 4 4 4 5 5 5 7
8 8 8 7 6 5 4 3 3 3 2 1 1 0 1 0 1 1 1 2 2 3 2 2 2 3 3 3 3 3 3 3 3
9 8 8 6 5 5 4 3 2 3 3 1 1 1 1 2 1 1 1 0 1 1 2 2 2 1 2 1 2 2 2 1 1
13 10 8 7 6 5 3 3 2 2 3 2 1 1 1 2 3 3 2 2 1 1 1 1 1 0 0 1 1 2 2 2 0
14 14 12 11 8 6 5 4 2 1 1 1 2 1 1 2 3 3 3 4 2 2 2 2 2 2 2 2 2 3 3 3 2
15 14 13 12 10 9 8 6 6 6 5 3 1 1 2 2 3 3 4 4 4 4 4 3 3 3 3 3 3 4 4 4 4
18 16 15 14 12 11 10 9 8 8 7 7 7 4 2 1 2 3 4 5 5 6 6 5 5 5 5 5 5 5 5 6 6
20 19 19 17 16 14 14 13 12 11 11 12 11 11 8 5 4 3 3 4 5 6 7 7 7 7 7 6 7 7 7 7 7
23 23 22 21 19 19 17 16 13 13 13 10 13 14 12 9 8 7 6 5 6 7 7 8 8 9 9 9 9 9 9 9 9
20 20 20 18 17 17 18 16 15 17 18 17 18 17 17 16 13 11 9 7 8 10 9 9 10 10 11 12 12 11 11 11 11
20 21 21 18 20 18 16 23 18 23 19 21 20 20 17 17 21 20 19 15 14 11 13 12 10 11 13 14 14 14 13 13 14
23 22 22 21 22 21 22 22 22 22 26 23 21 25 20 24 23 21 19 23 20 18 15 14 15 15 13 14 16 16 16 16 16
Wind_Direction
158 147 140 130 125 119 107 96 91 90 91 93 93 88 89 95 98 99 97 89 82 76 72 73 72 72 70 67 68 67 66 67 63
165 151 149 136 131 121 110 103 91 88 88 90 90 89 89 87 85 91 93 92 88 80 77 76 75 74 72 69 68 66 62 65 66
167 159 155 146 142 131 110 97 92 88 84 80 81 88 96 93 93 92 91 90 88 86 83 81 79 77 75 74 71 68 64 64 67
171 165 161 155 151 133 121 111 104 96 89 85 86 88 95 100 99 95 90 85 84 85 86 87 82 80 77 76 70 66 64 65 69
172 173 168 162 158 149 137 121 109 101 95 90 93 93 96 99 101 96 92 86 82 81 86 89 90 87 82 78 74 64 59 60 69
172 175 179 169 159 162 156 129 108 100 99 92 92 96 96 95 92 95 91 86 80 77 77 84 90 89 87 84 80 75 65 61 61
175 173 177 172 168 162 161 135 120 109 94 92 93 98 98 97 96 96 93 91 85 83 77 80 88 93 94 91 87 85 86 74 69
169 170 167 166 170 165 163 130 111 102 93 80 83 88 98 102 108 109 100 91 89 87 86 85 88 93 97 99 95 85 77 88 85
166 161 158 160 158 156 151 133 117 103 84 71 72 76 56 92 97 84 97 95 90 84 88 91 93 91 97 107 110 108 90 74 85
172 168 162 159 155 153 145 137 124 118 105 87 71 346 281 311 81 55 34 84 79 79 77 80 81 90 93 114 133 133 122 104 83
187 181 174 170 169 161 152 134 114 99 87 82 26 17 300 285 250 215 264 356 52 51 51 66 76 88 111 141 182 180 158 147 100
202 202 193 188 186 180 172 157 129 78 72 70 65 42 328 268 265 261 248 248 260 306 10 358 18 320 176 198 229 247 229 245 262
207 208 208 208 210 211 208 197 201 196 191 43 43 67 305 296 277 279 272 268 261 275 281 303 310 314 309 292 272 266 267 269 270
210 214 215 213 212 215 222 223 231 245 253 252 276 359 30 336 316 299 282 276 272 269 271 271 276 281 281 278 275 272 273 274 277
215 219 225 227 225 226 226 228 232 245 252 254 257 270 279 4 356 340 318 301 288 279 275 271 273 277 277 279 273 272 271 272 277
218 224 229 230 232 236 239 244 248 251 259 265 261 258 260 281 284 305 337 323 303 291 285 277 271 269 272 270 270 268 269 271 273
221 226 232 240 242 240 244 248 253 259 259 260 270 275 276 272 270 283 280 292 304 296 280 274 272 271 268 267 266 268 269 269 269
218 225 230 230 241 238 254 250 244 247 246 266 269 265 267 264 265 273 274 267 289 290 288 283 276 269 268 269 270 269 267 269 269
229 231 232 237 249 242 255 239 261 248 257 265 266 269 264 261 275 267 270 264 272 282 275 280 288 287 276 271 269 269 269 268 268
230 236 239 243 248 247 252 258 255 252 262 261 262 268 264 266 272 276 266 264 269 266 277 277 283 283 285 279 272 269 269 270 269
Height
3184 3187 3189 3190 3191 3193 3195 3195 3196 3196 3196 3196 3197 3198 3199 3200 3200 3200 3201 3202 3202 3203 3203 3203 3203 3203 3203 3203 3202 3201 3200 3198 3198
3185 3188 3189 3191 3193 3194 3196 3197 3197 3198 3197 3198 3199 3200 3201 3202 3203 3204 3204 3204 3204 3205 3205 3205 3205 3205 3205 3204 3204 3203 3203 3202 3200
3186 3189 3191 3193 3193 3195 3197 3198 3199 3199 3200 3200 3201 3202 3203 3204 3205 3206 3206 3206 3206 3206 3206 3207 3207 3206 3207 3206 3206 3205 3205 3205 3203
3186 3188 3191 3193 3195 3196 3197 3199 3200 3201 3202 3202 3203 3204 3205 3206 3207 3208 3208 3209 3209 3208 3208 3208 3208 3208 3208 3208 3207 3207 3207 3207 3206
3186 3188 3190 3192 3195 3196 3198 3199 3200 3202 3202 3204 3205 3206 3207 3207 3208 3209 3210 3210 3211 3210 3210 3210 3209 3209 3209 3209 3209 3209 3209 3209 3208
3187 3189 3191 3192 3195 3196 3198 3200 3202 3202 3203 3204 3205 3207 3207 3208 3209 3209 3210 3211 3211 3212 3212 3211 3210 3210 3210 3210 3210 3210 3210 3210 3210
3187 3189 3191 3193 3195 3197 3199 3201 3202 3203 3204 3205 3206 3207 3208 3208 3209 3210 3210 3211 3212 3213 3213 3212 3212 3211 3211 3211 3211 3211 3210 3210 3211
3187 3189 3191 3193 3195 3197 3199 3201 3202 3203 3204 3205 3206 3207 3208 3209 3209 3210 3210 3211 3212 3212 3213 3213 3212 3212 3212 3212 3211 3212 3212 3210 3210
3187 3189 3191 3193 3194 3196 3198 3200 3202 3203 3205 3206 3207 3207 3208 3209 3210 3210 3211 3212 3212 3213 3213 3213 3213 3213 3212 3212 3212 3212 3212 3213 3211
3187 3189 3191 3193 3194 3196 3198 3199 3201 3203 3205 3206 3207 3207 3208 3209 3210 3211 3212 3212 3212 3213 3213 3213 3213 3214 3213 3213 3213 3212 3212 3212 3212
3186 3189 3191 3193 3194 3196 3198 3199 3201 3203 3204 3205 3206 3207 3208 3209 3209 3210 3211 3212 3213 3213 3213 3213 3213 3214 3214 3214 3213 3213 3213 3213 3212
3185 3188 3190 3192 3194 3196 3198 3200 3201 3202 3203 3204 3206 3207 3208 3209 3209 3210 3211 3211 3212 3213 3213 3213 3213 3213 3213 3214 3214 3214 3213 3213 3213
3183 3186 3189 3191 3193 3195 3197 3199 3200 3202 3203 3204 3205 3206 3207 3208 3209 3209 3210 3211 3211 3212 3212 3213 3213 3213 3213 3213 3214 3213 3213 3213 3213
3181 3184 3186 3189 3192 3194 3196 3198 3200 3201 3202 3203 3205 3206 3207 3208 3209 3209 3209 3210 3210 3210 3211 3212 3212 3212 3212 3213 3213 3213 3213 3212 3212
3180 3182 3185 3187 3190 3192 3194 3196 3198 3199 3201 3202 3203 3205 3206 3208 3208 3208 3209 3209 3209 3210 3210 3211 3211 3211 3211 3212 3212 3212 3212 3212 3212
3178 3180 3182 3185 3187 3190 3192 3194 3196 3198 3198 3200 3201 3203 3205 3206 3207 3208 3208 3208 3208 3209 3209 3209 3209 3210 3210 3210 3210 3211 3211 3211 3211
3175 3177 3180 3182 3184 3187 3189 3191 3193 3195 3196 3198 3199 3201 3203 3204 3205 3206 3207 3207 3207 3207 3207 3207 3208 3208 3208 3209 3209 3209 3209 3209 3209
3171 3174 3176 3179 3181 3184 3186 3187 3190 3193 3194 3195 3196 3198 3199 3200 3202 3203 3204 3205 3205 3205 3205 3205 3206 3206 3206 3207 3207 3207 3207 3207 3207
3168 3170 3173 3175 3177 3180 3182 3186 3186 3188 3190 3191 3192 3193 3195 3197 3198 3200 3200 3201 3202 3203 3203 3203 3203 3203 3203 3204 3204 3204 3205 3205 3205
3163 3166 3168 3171 3174 3176 3178 3180 3182 3183 3186 3187 3188 3189 3190 3192 3193 3194 3196 3196 3197 3200 3201 3201 3200 3200 3200 3200 3201 3201 3201 3201 3202